Terug naar catalogus

STARLINK-37640

ActiefCommunicatieVLEO
NORAD 69447·PAYLOAD·🇺🇸 United States

Gelanceerd Jun 8, 2026 vanaf Cape Canaveral Space Force Station

Loading…

Volgende Passages (komende 24 uur)

TLE

VersSource: CelesTrak SupGP

Epoch: Sep 15, 2026, 04:28 UTC

1 69447C 26127E   26258.18659722 -.00033723  00000+0 -99658-3 0  2588
2 69447  53.1582 190.9108 0001290  88.6749 192.2225 15.34400328    12

Volg STARLINK-37640 in realtime met AllMySat

Download on the App Store